User: anonymous   Login
Location: Brno
(49.2000°N, 16.6330°E)
Time: 12:03:29
(UTC+01:00)
Language:

Iridium 2 - Orbit

View from above orbital plane
View from above orbital plane
View from above satellite
View from above satellite

Ground track
Ground track

The orbit data is extracted from the following two-line orbital elements,

1 25527U 98066A   15064.30587874  .00007456  00000-0  44089-3 0  9998
2 25527 085.5363 163.4963 0008701 267.9632 119.8514 15.11279240891511
Epoch (UTC): 05 March 2015 07:20:27
Eccentricity: 0.0008701
inclination: 85.5363°
perigee height: 526 km
apogee height: 538 km
right ascension of ascending node: 163.4963°
argument of perigee: 267.9632°
revolutions per day: 15.11279240
mean anomaly at epoch: 119.8514°
orbit number at epoch: 89151

The dashed part of the orbit path shows where the satellite is in the earth's shadow,  

DLR